Wind_Speed
9 11 11 10 10 13 13 10 6 4 6 9 13 15 16 16 15 15 16 16 15 14 13 12 10 9 10 10 10 11 12 13 14 14 15 15 15 15 14 16 17 17 18 18 19 20 20 20 21
12 12 11 10 8 10 11 9 6 5 6 9 11 13 13 12 12 14 15 15 13 12 11 9 7 7 7 7 8 10 11 13 14 15 16 16 17 17 18 18 18 19 19 19 20 20 21 23 23
14 13 12 11 9 7 5 5 6 6 4 7 9 11 12 13 14 14 13 12 11 10 8 6 5 6 6 6 7 8 9 11 13 15 16 16 15 16 18 19 19 18 19 20 20 21 23 24 25
15 14 12 11 10 8 5 3 1 3 4 6 7 10 12 15 16 16 14 12 11 10 9 7 5 4 3 2 4 6 8 10 12 13 13 13 13 13 14 15 16 17 19 21 23 25 26 27 26
16 14 13 13 11 6 3 4 6 8 9 10 9 11 13 14 16 17 16 14 13 12 11 10 10 9 7 6 6 6 9 10 10 9 9 10 11 12 12 13 15 17 19 21 24 27 27 28 29
15 13 13 11 9 5 2 3 5 8 10 10 10 12 14 15 17 18 17 16 17 16 13 13 15 15 13 11 8 7 7 8 8 8 9 9 11 12 13 13 14 15 17 19 22 25 27 28 29
15 12 11 9 9 6 3 2 4 8 9 11 11 14 15 16 17 20 20 19 17 15 14 15 15 14 10 8 8 8 8 10 11 11 13 14 14 15 15 15 16 17 18 19 21 24 26 28 29
14 13 12 11 11 9 6 4 5 7 9 10 13 14 16 18 20 20 20 18 17 15 13 12 12 12 9 9 11 12 13 15 17 18 19 19 18 18 18 18 19 20 20 20 21 23 24 27 28
11 12 11 11 10 8 8 6 7 10 10 11 13 15 18 19 20 20 20 19 20 21 17 11 9 10 10 12 13 14 15 17 20 22 23 22 22 22 21 21 22 23 22 22 22 23 25 27 29
10 11 10 10 11 11 11 10 10 12 14 12 14 17 19 20 18 17 17 20 22 25 23 15 9 9 11 13 14 14 15 16 19 21 22 23 23 23 22 22 23 24 24 24 24 24 26 28 30
12 12 11 12 13 14 15 15 14 14 16 16 17 19 20 21 20 15 14 17 21 23 23 19 13 11 12 14 15 15 15 16 18 18 20 21 22 22 22 22 23 24 25 25 25 26 26 28 30
16 15 14 14 15 18 21 20 17 16 17 19 21 21 22 24 24 18 16 16 17 21 21 15 12 11 12 15 16 17 19 20 20 20 20 21 22 22 24 25 26 26 27 28 29 29 29 31 33
21 18 15 16 18 20 23 23 21 19 21 22 23 24 24 24 24 21 20 19 19 20 19 15 14 14 15 16 18 19 20 22 22 23 23 24 24 25 27 28 29 30 30 31 32 33 34 36 37
24 20 16 18 22 24 27 27 26 26 25 25 25 26 25 22 21 22 22 21 21 20 19 18 19 21 21 18 17 18 19 20 21 22 23 25 26 27 27 27 29 31 32 33 34 35 37 37 38
26 22 19 20 25 27 27 26 25 28 30 30 29 29 26 19 19 23 24 23 23 22 20 20 23 25 22 18 16 16 17 18 20 21 23 25 26 26 26 27 29 30 31 34 36 38 39 39 40
28 25 21 22 25 27 27 23 23 24 27 29 29 27 21 15 19 23 25 24 23 21 20 23 26 26 22 18 17 16 16 18 20 22 23 24 25 27 29 31 31 32 33 35 38 39 41 42 44
31 29 25 23 26 27 29 27 27 26 26 26 23 19 15 14 19 24 26 24 21 19 21 23 25 23 20 19 19 18 19 19 21 22 25 27 28 30 32 34 35 36 38 39 41 43 44 45 47
34 33 30 26 29 31 32 31 30 29 28 28 24 18 14 15 19 23 24 21 19 20 22 23 23 22 22 22 23 23 23 23 24 26 28 29 31 33 35 37 39 40 42 44 45 47 48 49 51
37 37 35 29 31 35 36 34 33 32 31 29 25 19 17 17 20 22 22 21 21 22 24 25 25 28 28 27 27 28 27 26 26 28 30 32 34 36 39 41 43 45 46 47 49 51 53 54 56
40 41 38 31 34 39 39 38 36 33 32 28 23 20 17 19 22 24 24 25 25 26 28 30 32 33 33 31 31 33 33 31 30 31 34 36 38 40 43 45 47 48 49 50 52 54 56 58 59
42 40 36 32 36 41 42 42 39 37 34 29 23 19 17 20 24 27 27 28 29 29 32 35 36 37 37 37 36 37 38 37 36 38 40 41 43 45 48 49 50 51 51 52 55 57 59 59 58
40 36 35 34 37 42 45 46 43 40 35 28 22 20 21 24 27 29 30 31 32 33 36 38 39 40 41 42 42 41 42 42 41 41 44 46 49 52 53 53 53 52 52 54 56 57 56 53 49
36 34 37 37 40 44 46 48 46 42 36 27 23 24 27 30 31 31 32 34 35 37 39 41 41 42 44 44 42 42 43 42 42 43 46 50 54 57 56 55 54 54 55 57 57 54 49 45 42
35 35 38 40 42 45 45 48 49 44 37 32 30 30 32 33 32 32 34 36 38 39 41 42 43 45 46 46 44 43 42 42 43 46 50 55 59 60 58 57 57 58 59 57 54 48 43 41 41
36 36 37 40 42 45 41 46 47 43 38 35 34 36 37 38 39 38 38 38 39 39 41 43 45 47 49 49 47 45 44 44 45 48 54 58 61 61 59 59 60 61 58 53 47 42 41 43 43
33 35 36 39 41 42 41 44 40 38 36 35 37 40 41 42 42 40 38 37 38 39 41 44 46 50 52 52 52 49 45 44 46 50 57 61 61 59 58 60 62 59 52 46 44 44 44 45 45
30 34 35 38 40 43 42 40 38 34 33 33 34 35 36 36 35 34 33 34 36 39 42 46 50 54 56 56 58 53 46 45 48 52 58 61 60 57 58 60 58 52 47 45 46 46 46 47 48
31 33 37 39 40 43 42 40 36 32 30 29 29 30 32 33 33 35 37 37 39 43 47 52 56 59 59 59 57 49 43 46 49 54 57 57 56 57 58 56 51 47 45 45 46 47 48 51 53
27 33 37 39 41 43 44 41 34 32 30 30 29 28 28 31 35 37 38 39 42 46 49 53 57 58 57 51 44 41 43 48 51 54 54 55 56 57 56 51 47 45 44 45 47 50 53 56 58
29 31 34 39 40 41 45 42 37 35 33 33 32 31 31 33 36 37 40 43 45 48 48 48 48 47 45 42 41 44 47 49 51 53 54 55 56 54 50 47 46 46 46 49 51 54 57 60 62
Wind_Direction
175 174 177 184 195 203 208 208 216 267 328 0 5 1 354 348 348 345 339 333 328 326 323 312 303 297 292 287 282 277 273 274 279 285 287 284 279 274 272 273 274 273 271 270 270 270 270 269 268
171 167 165 166 175 190 196 206 215 259 320 358 4 358 350 346 342 336 336 337 334 333 329 317 302 289 279 274 274 274 277 280 284 287 287 286 282 277 273 271 271 271 272 271 271 273 275 276 276
171 167 162 161 167 159 174 213 238 269 322 7 3 352 348 343 334 326 328 330 334 333 329 319 297 279 268 265 273 281 287 289 288 291 292 291 288 282 277 275 273 272 273 273 274 275 276 276 276
175 173 168 162 155 138 129 120 55 5 27 31 14 358 348 341 334 327 317 310 319 324 325 325 311 310 315 311 298 297 296 292 290 294 297 299 302 298 291 284 278 276 277 277 276 277 278 279 279
186 178 167 165 159 146 111 47 32 35 46 35 17 360 353 346 341 339 326 309 313 320 316 312 307 315 325 325 318 298 292 290 286 289 296 298 300 297 294 289 284 281 281 281 280 281 281 280 277
191 188 179 167 171 158 100 22 15 16 26 24 12 359 353 346 345 348 342 327 322 318 305 300 299 301 309 313 310 293 292 296 299 304 301 298 297 295 292 289 286 283 282 281 281 282 282 280 277
193 199 197 192 209 218 235 315 347 356 7 13 11 0 352 350 357 359 357 354 346 328 309 303 301 299 308 310 306 297 301 307 309 309 308 304 298 293 290 288 285 282 280 279 278 279 280 280 280
205 214 213 222 239 242 248 276 316 333 349 2 4 354 350 354 7 11 14 15 13 2 349 338 319 308 305 308 309 304 305 309 311 311 311 308 303 297 293 290 284 279 276 273 272 273 274 275 276
219 223 232 243 254 269 285 291 312 318 334 349 346 342 346 355 7 18 26 29 25 21 17 10 331 314 315 315 311 307 308 311 309 308 308 308 304 299 295 294 290 284 277 274 273 270 268 269 271
242 250 253 261 274 290 300 298 301 306 315 326 327 330 337 349 360 18 28 25 24 26 29 35 19 357 351 339 323 311 306 305 304 303 303 302 299 295 294 294 296 295 291 286 281 275 270 269 270
255 256 262 267 277 289 297 302 304 304 305 307 308 315 328 340 345 0 8 11 20 26 30 37 34 11 354 343 331 319 308 300 299 299 299 299 296 293 293 292 290 288 289 290 288 284 279 278 278
252 258 260 267 276 286 297 301 294 292 292 292 296 306 319 328 334 342 349 354 9 18 22 24 17 355 338 328 319 310 302 295 291 291 294 297 297 295 292 291 291 293 295 296 296 294 291 290 288
245 256 261 265 272 279 290 290 282 275 277 283 291 300 310 319 328 334 339 345 358 7 8 8 5 354 336 319 307 302 296 293 289 289 290 292 294 297 299 301 302 303 302 302 302 301 301 299 296
245 253 260 264 265 272 285 286 272 268 270 274 282 291 302 315 325 329 334 340 347 353 355 354 354 349 338 322 306 298 296 295 292 291 295 294 292 295 299 301 303 304 305 305 304 303 301 299 298
247 251 255 260 263 269 281 279 267 264 266 270 275 282 292 309 323 324 328 335 337 343 346 346 347 342 335 327 314 303 299 301 298 297 301 302 299 299 302 304 304 305 304 304 303 302 301 299 298
249 251 250 255 261 265 267 262 255 258 262 265 270 274 279 306 322 322 325 326 326 335 341 341 344 340 336 330 323 314 309 306 305 304 306 309 308 307 306 307 306 305 303 301 299 296 295 295 294
249 250 248 249 254 256 258 254 255 258 261 263 268 273 280 307 321 322 320 316 319 330 336 336 343 345 342 336 331 325 320 315 313 312 312 313 312 311 310 308 307 305 303 300 297 295 294 293 293
250 251 248 246 249 251 252 253 254 257 262 269 274 279 293 307 316 318 313 310 318 327 331 328 337 339 336 336 334 330 324 319 316 315 315 315 315 314 311 308 307 305 303 301 299 298 296 294 293
247 250 249 246 245 247 248 251 253 259 266 273 273 272 285 297 306 311 307 308 316 321 324 319 322 325 324 326 331 333 331 326 322 322 324 323 320 316 313 310 309 308 306 304 303 301 298 296 294
247 250 251 247 243 246 247 249 254 259 267 271 264 260 269 286 299 304 306 308 311 314 317 315 315 316 318 320 322 328 330 328 325 326 327 325 323 320 317 314 311 309 307 305 303 300 297 294 292
249 251 252 245 239 245 248 250 253 257 262 263 261 264 270 281 290 295 300 305 306 307 310 312 311 313 315 317 319 323 327 326 324 325 326 325 322 321 318 315 312 309 307 305 303 301 298 295 293
250 251 249 242 237 238 245 249 253 259 261 261 261 267 272 277 283 289 293 298 300 302 305 306 306 308 310 312 315 318 321 322 322 323 324 323 321 320 317 314 311 309 307 306 304 303 301 298 294
250 246 245 241 238 240 243 250 255 257 258 259 259 262 266 272 280 285 288 292 295 298 299 299 300 301 303 305 310 315 317 319 320 321 320 321 321 320 316 313 311 309 308 307 305 303 302 298 293
246 242 244 245 245 245 246 250 254 256 258 259 258 261 265 271 277 281 284 289 293 295 294 293 293 295 297 298 303 310 313 315 316 316 317 317 319 319 316 313 311 308 308 307 305 301 299 296 294
248 245 246 247 249 251 250 252 254 255 257 262 266 267 268 270 272 278 283 287 290 290 288 287 289 291 292 292 296 303 307 309 311 312 314 315 316 316 314 311 309 309 309 306 302 298 295 294 294
250 247 245 249 252 255 253 253 254 256 259 264 270 271 270 270 273 277 281 284 285 284 284 286 288 288 289 290 291 295 300 302 306 309 312 313 313 312 311 310 310 311 309 303 299 297 295 294 294
245 244 247 250 254 257 256 258 257 257 262 269 276 275 272 272 274 276 279 282 283 283 285 286 286 284 285 286 286 288 293 299 304 308 310 311 311 310 310 311 312 310 305 301 299 297 296 295 294
244 242 241 246 254 259 262 260 259 262 268 274 278 277 274 272 271 274 280 283 283 283 285 286 283 280 280 282 285 288 294 300 304 306 308 308 308 310 311 311 309 307 305 302 300 298 298 297 296
242 242 243 247 253 259 263 263 266 270 274 277 276 274 275 274 275 280 285 286 285 287 289 292 292 286 283 285 288 293 299 303 305 306 307 308 309 311 311 310 308 307 306 305 303 302 300 299 298
245 246 246 249 253 257 261 264 268 272 275 276 275 272 275 281 285 289 292 293 294 295 295 298 305 303 299 299 303 307 307 307 307 307 307 309 310 311 310 309 308 308 308 307 305 302 300 299 299
Height
5882 5883 5885 5887 5889 5890 5890 5892 5893 5893 5893 5891 5890 5889 5889 5889 5888 5889 5886 5883 5882 5881 5880 5880 5879 5878 5878 5878 5878 5879 5880 5880 5881 5881 5882 5883 5882 5882 5882 5883 5883 5883 5883 5883 5884 5884 5885 5885 5885
5881 5882 5885 5887 5889 5889 5891 5891 5892 5893 5892 5890 5889 5889 5888 5887 5886 5885 5883 5881 5880 5879 5878 5877 5877 5876 5876 5876 5876 5877 5877 5878 5878 5878 5879 5880 5880 5879 5879 5879 5879 5880 5880 5880 5879 5880 5880 5881 5881
5880 5882 5885 5887 5889 5890 5891 5891 5892 5892 5891 5890 5889 5888 5886 5885 5884 5883 5882 5881 5879 5877 5876 5875 5875 5874 5874 5874 5874 5874 5875 5875 5875 5876 5876 5876 5876 5876 5876 5876 5876 5876 5876 5876 5876 5876 5876 5876 5877
5881 5883 5885 5888 5889 5890 5891 5891 5891 5891 5889 5888 5887 5886 5884 5883 5882 5881 5880 5880 5878 5877 5876 5875 5874 5873 5873 5873 5873 5873 5872 5872 5872 5873 5873 5872 5872 5872 5872 5872 5872 5872 5872 5873 5873 5872 5872 5873 5873
5881 5883 5885 5887 5889 5890 5890 5890 5890 5889 5887 5886 5886 5884 5883 5882 5881 5880 5880 5879 5878 5877 5876 5875 5875 5873 5872 5872 5871 5871 5871 5871 5871 5870 5870 5870 5869 5868 5868 5868 5868 5868 5868 5868 5868 5868 5867 5867 5868
5882 5883 5886 5887 5888 5889 5889 5889 5888 5887 5886 5885 5884 5883 5882 5882 5882 5880 5879 5877 5876 5875 5874 5874 5873 5872 5871 5870 5870 5870 5870 5871 5871 5870 5869 5868 5867 5867 5866 5865 5865 5864 5864 5864 5863 5862 5861 5861 5861
5882 5883 5884 5886 5886 5887 5887 5887 5886 5885 5884 5883 5882 5881 5881 5881 5881 5879 5877 5875 5873 5872 5871 5871 5870 5869 5869 5869 5869 5870 5870 5870 5869 5868 5867 5866 5865 5864 5863 5862 5861 5861 5860 5859 5859 5858 5857 5856 5855
5881 5883 5883 5884 5885 5884 5884 5884 5884 5884 5883 5882 5881 5880 5880 5880 5880 5879 5877 5874 5871 5869 5868 5868 5867 5867 5867 5867 5868 5868 5868 5867 5866 5865 5863 5862 5861 5860 5859 5857 5856 5856 5855 5854 5853 5852 5851 5850 5849
5880 5882 5881 5882 5883 5883 5882 5882 5882 5881 5881 5880 5879 5880 5881 5880 5880 5879 5877 5873 5870 5867 5865 5864 5865 5865 5866 5866 5866 5865 5864 5863 5862 5860 5859 5857 5856 5855 5854 5852 5851 5849 5848 5847 5846 5846 5845 5844 5843
5879 5880 5880 5880 5880 5880 5880 5880 5880 5879 5879 5878 5878 5878 5879 5879 5879 5878 5876 5873 5869 5867 5865 5863 5864 5865 5864 5864 5863 5862 5860 5859 5857 5855 5854 5853 5851 5850 5849 5847 5846 5845 5844 5842 5840 5839 5838 5837 5836
5876 5877 5878 5878 5877 5877 5877 5877 5877 5876 5876 5877 5877 5877 5877 5877 5877 5876 5875 5872 5870 5868 5865 5864 5864 5864 5862 5861 5860 5858 5856 5854 5852 5851 5849 5848 5847 5846 5845 5843 5842 5840 5838 5836 5834 5833 5831 5830 5829
5873 5874 5875 5876 5876 5875 5875 5875 5874 5874 5875 5876 5876 5875 5875 5876 5875 5874 5872 5870 5869 5867 5865 5864 5863 5861 5859 5858 5856 5855 5852 5850 5848 5847 5845 5845 5844 5843 5841 5839 5838 5835 5833 5831 5828 5826 5825 5824 5822
5869 5871 5873 5874 5874 5873 5872 5872 5872 5871 5872 5873 5873 5873 5874 5874 5872 5870 5868 5867 5867 5865 5864 5863 5861 5859 5857 5855 5852 5850 5848 5846 5844 5843 5842 5841 5840 5838 5836 5833 5830 5828 5826 5824 5821 5820 5818 5816 5813
5866 5868 5871 5872 5871 5871 5871 5870 5869 5868 5869 5870 5871 5871 5872 5872 5870 5866 5864 5863 5863 5862 5861 5859 5857 5856 5854 5852 5849 5847 5845 5843 5841 5840 5839 5837 5835 5833 5831 5829 5826 5823 5820 5818 5815 5813 5811 5808 5805
5864 5866 5868 5869 5868 5868 5869 5867 5864 5864 5864 5866 5867 5869 5870 5869 5867 5863 5860 5859 5859 5858 5856 5855 5853 5852 5850 5848 5846 5844 5842 5840 5838 5837 5835 5832 5830 5828 5826 5824 5821 5818 5814 5812 5809 5806 5803 5799 5796
5861 5863 5865 5865 5864 5864 5865 5863 5860 5859 5859 5861 5863 5866 5867 5865 5863 5859 5856 5856 5855 5854 5852 5850 5849 5847 5846 5844 5843 5841 5839 5837 5835 5833 5830 5827 5825 5823 5820 5817 5814 5810 5807 5804 5801 5799 5795 5792 5788
5855 5857 5859 5862 5860 5859 5858 5858 5856 5855 5855 5857 5859 5861 5862 5861 5859 5856 5853 5852 5852 5850 5848 5847 5846 5844 5843 5841 5839 5837 5835 5833 5830 5828 5824 5821 5819 5815 5812 5808 5805 5802 5799 5795 5792 5789 5785 5781 5777
5848 5849 5853 5856 5855 5853 5852 5852 5852 5852 5852 5853 5855 5857 5858 5857 5855 5853 5850 5849 5848 5846 5845 5844 5843 5842 5841 5838 5836 5833 5830 5827 5824 5821 5818 5815 5811 5807 5803 5799 5796 5792 5788 5785 5780 5776 5772 5768 5763
5841 5842 5845 5850 5848 5845 5845 5846 5846 5847 5848 5849 5850 5852 5853 5852 5850 5849 5846 5845 5844 5843 5842 5841 5840 5839 5838 5835 5832 5828 5824 5821 5817 5814 5810 5806 5802 5798 5794 5790 5785 5780 5776 5771 5766 5761 5756 5752 5747
5834 5835 5839 5844 5841 5837 5838 5839 5840 5842 5843 5844 5845 5845 5846 5846 5845 5843 5842 5840 5839 5838 5838 5836 5834 5833 5831 5828 5825 5821 5818 5814 5810 5806 5801 5797 5793 5789 5784 5778 5773 5767 5762 5757 5752 5747 5741 5736 5731
5826 5829 5833 5836 5834 5830 5831 5831 5833 5836 5837 5839 5839 5840 5840 5841 5840 5838 5837 5836 5834 5833 5832 5829 5827 5824 5821 5819 5816 5812 5809 5805 5801 5796 5791 5787 5782 5777 5772 5766 5760 5755 5749 5744 5738 5732 5725 5720 5715
5819 5823 5825 5827 5826 5825 5824 5823 5827 5829 5831 5832 5833 5834 5835 5835 5835 5833 5832 5830 5828 5827 5825 5822 5819 5816 5814 5811 5808 5804 5800 5796 5791 5786 5782 5777 5772 5766 5760 5754 5747 5741 5735 5729 5723 5716 5709 5703 5699
5812 5815 5814 5816 5817 5817 5817 5816 5819 5822 5824 5826 5827 5829 5830 5830 5829 5827 5826 5824 5823 5821 5818 5815 5812 5810 5807 5803 5799 5795 5791 5786 5781 5776 5771 5766 5760 5753 5747 5740 5734 5727 5720 5714 5707 5700 5694 5689 5685
5803 5805 5806 5807 5809 5809 5813 5811 5811 5815 5818 5819 5820 5822 5823 5823 5822 5820 5818 5817 5816 5814 5811 5808 5804 5801 5797 5793 5789 5785 5781 5776 5771 5766 5760 5754 5747 5740 5733 5727 5720 5713 5706 5698 5691 5686 5681 5677 5673
5796 5798 5799 5799 5800 5802 5806 5804 5805 5809 5812 5813 5814 5814 5814 5814 5814 5813 5812 5811 5809 5806 5802 5799 5795 5791 5787 5783 5780 5776 5772 5766 5761 5756 5750 5742 5734 5727 5721 5714 5706 5698 5691 5684 5678 5673 5669 5665 5661
5790 5790 5792 5793 5793 5794 5797 5796 5801 5803 5805 5806 5806 5806 5805 5805 5805 5805 5804 5802 5799 5796 5792 5789 5785 5782 5777 5773 5769 5766 5762 5757 5751 5745 5739 5731 5723 5716 5708 5700 5692 5684 5677 5671 5667 5663 5658 5653 5649
5782 5783 5786 5786 5786 5786 5788 5791 5794 5798 5799 5800 5799 5797 5796 5795 5795 5795 5794 5792 5789 5786 5783 5779 5776 5772 5767 5763 5759 5755 5751 5745 5739 5733 5726 5719 5712 5704 5696 5687 5679 5671 5664 5659 5655 5651 5647 5642 5637
5776 5778 5779 5779 5779 5778 5780 5784 5789 5793 5793 5793 5791 5789 5788 5787 5787 5786 5785 5783 5781 5778 5774 5770 5765 5760 5755 5751 5747 5743 5740 5735 5728 5721 5715 5708 5701 5693 5684 5676 5668 5661 5654 5649 5644 5640 5635 5630 5624
5770 5771 5772 5773 5774 5773 5772 5779 5783 5785 5786 5785 5784 5782 5781 5779 5779 5779 5778 5776 5773 5770 5765 5760 5754 5748 5744 5741 5738 5734 5731 5725 5718 5711 5704 5697 5689 5681 5673 5665 5658 5650 5644 5638 5633 5627 5621 5615 5608
5764 5764 5766 5767 5767 5768 5766 5773 5774 5777 5777 5777 5776 5776 5774 5774 5773 5772 5770 5767 5763 5759 5754 5750 5746 5742 5738 5734 5730 5726 5721 5715 5708 5700 5693 5685 5677 5669 5661 5654 5647 5640 5633 5627 5620 5614 5607 5599 5592